Location: D�pe
(52.6057°N, 8.1808°E)
Time: 07:25:57
(UTC+00:00)

Cosmos 1354 Rocket - Pass Details

Date: 29 October 2020
Orbit: 764 x 783 km, 74.0° (Epoch: 01 December)

Event Time Altitude Azimuth Distance (km) Brightness Sun altitude
Rises 17:26:33 0° 335° (NNW) 3,249 7.5 -13.3°
Reaches altitude 10° 17:28:57 10° 339° (NNW) 2,320 6.7 -13.6°
Maximum altitude 17:34:12 64° 61° (ENE) 854 4.0 -14.4°
Drops below altitude 10° 17:39:25 10° 143° (SE) 2,317 6.2 -15.2°
Enters shadow 17:41:03 - 145° (SE) 2,943 6.7 -15.4°
